Hourly Data Report for October 01, 2013

All times are specified in Local Standard Time (LST). Add 1 hour to adjust for Daylight Saving Time where and when it is observed.

GJOA HAVEN A
NUNAVUT

68°38'08.000" N
95°51'01.000" W
46.90 m
2302337
71597
YHK

Download Data

Hourly Data (October 2013)
Hourly Data Report for October 1, 2013
Temp Definition
°C
Dew Point Temp Definition
°C
Rel Hum Definition
%
Wind Dir Definition
10's deg

Wind Spd Definition
km/h
Visibility Definition
km
Stn Press Definition
kPa
Hmdx Definition


Wind Chill Definition


Weather Definition


TIME
00:00 Legend Double Dagger -3.0 -4.7 88 2 11 16.1 100.57   -7 LegendNANA
01:00 Legend Double Dagger -3.1 -5.0 87 1 17 16.1 100.61   -9 LegendNANA
02:00 Legend Double Dagger -3.2 -4.8 89 1 13 16.1 100.64   -8 LegendNANA
03:00 Legend Double Dagger -2.8 -4.5 88 35 15 16.1 100.67   -8 LegendNANA
04:00 Legend Double Dagger -4.2 -5.0 94 34 11 16.1 100.66   -9 LegendNANA
05:00 Legend Double Dagger -4.3 -5.0 95 33 13 16.1 100.67   -9 LegendNANA
06:00 Legend Double Dagger -3.6 -4.2 96 1 22 16.1 100.70   -10 LegendNANA
07:00 Legend Double Dagger -3.1 -3.8 95 1 17 16.1 100.72   -9 LegendNANA
08:00 Legend Double Dagger -2.5 -3.5 93 35 22 16.1 100.74   -9 LegendNANA
09:00 Legend Double Dagger -1.8 -3.1 91 1 22 16.1 100.74   -8 LegendNANA
10:00 Legend Double Dagger -0.9 -3.7 81 2 21 16.1 100.74   -7 LegendNANA
11:00 Legend Double Dagger -0.5 -4.1 77 3 17 16.1 100.78   -5 LegendNANA
12:00 Legend Double Dagger 0.0 -3.6 77 2 17 16.1 100.82   -5 LegendNANA
13:00 Legend Double Dagger 0.0 -3.7 76 3 17 16.1 100.87   -5 LegendNANA
14:00 Legend Double Dagger -0.1 -4.3 74 3 15 16.1 100.92   -5 LegendNANA
15:00 Legend Double Dagger -0.1 -4.7 71 2 15 16.1 100.95   -5 LegendNANA
16:00 Legend Double Dagger -1.2 -3.8 83 1 15 16.1 100.97   -6 LegendNANA
17:00 Legend Double Dagger -1.3 -3.3 86 2 15 16.1 101.03   -6 LegendNANA
18:00 Legend Double Dagger -1.4 -3.3 87 2 17 16.1 101.05   -7 LegendNANA
19:00 Legend Double Dagger -2.1 -3.6 89 1 17 16.1 101.05   -7 LegendNANA
20:00 Legend Double Dagger -2.3 -2.7 97 35 18 16.1 101.08   -8 LegendNANA
21:00 Legend Double Dagger -2.5 -2.8 98 36 18 16.1 101.10   -8 LegendNANA
22:00 Legend Double Dagger -2.2 -2.8 96 1 22 16.1 101.13   -8 LegendNANA
23:00 Legend Double Dagger -2.3 -3.2 94 2 22 16.1 101.15   -8 LegendNANA

Notes on Data Quality.

Legend

  • E = Estimated
  • M = Missing
  • NA = Not Available
  • ‡ = Partner data that is not subject to review by the National Climate Archives
Date modified: